Crescent City, CA

5:57 PM PST on December 04, 2016 (GMT -0800)
McNamara

Weather History for KCEC - April, 2013

Change the Weather History Date:

Tuesday, April 16, 2013

  Actual Average Record
Temperature  
Mean Temperature 46 °F 49 °F  
Max Temperature 54 °F 54 °F 74 °F (1999)
Min Temperature 38 °F 44 °F 33 °F (1960)
Degree Days  
Heating Degree Days 18 16  
Month to date heating degree days 256  
Since 1 July heating degree days 3942  
Cooling Degree Days 0 0  
Month to date cooling degree days 0  
Year to date cooling degree days 0  
Moisture  
Dew Point 40 °F    
Average Humidity 69    
Maximum Humidity 76    
Minimum Humidity 61    
Precipitation  
Precipitation 0.00 in 0.19 in 1.45 in (1986)
Month to date precipitation 3.05 3.27  
Year to date precipitation 16.31 30.40  
Since 1 July precipitation 50.01  
Snow  
Snow 0.00 in - - ()
Month to date snowfall 0.0  
Since 1 July snowfall 0.0  
Snow Depth -    
Sea Level Pressure  
Sea Level Pressure 30.29 in    
Wind  
Wind Speed 12 mph (NNW)    
Max Wind Speed 29 mph    
Max Gust Speed 38 mph    
Visibility 9 miles    
Events      
T = Trace of Precipitation, MM = Missing Value Source: NWS Daily Summary

Daily Weather History Graph

Daily Weather History Graph

Search for Another Location

Airport or City:

Trip Planner

Search our weather history database for the weather conditions in past years. The results will help you decide how hot, cold, wet, or windy it might be!

Date:

Astronomy

Apr. 16, 2013 Rise Set
Actual Time 6:34 AM PDT 7:59 PM PDT
Civil Twilight 6:05 AM PDT 8:28 PM PDT
Nautical Twilight 5:30 AM PDT 9:03 PM PDT
Astronomical Twilight 4:53 AM PDT 9:40 PM PDT
Moon 10:56 AM PDT (4/16) 1:02 AM PDT (4/16)
Length of Visible Light 14h 22m
Length of Day
13h 24m
Waxing Crescent, 34% of the Moon is Illuminated
Apr 16
Waxing Crescent
Apr 18
First Quarter
Apr 25
Full
May 2
Last Quarter
May 9
New

Hourly Weather History & Observations

Time (PDT) Temp. Windchill Dew Point Humidity Pressure Visibility Wind Dir Wind Speed Gust Speed Precip Events Conditions
12:56 AM 44.1 °F 39.5 °F 34.0 °F 68% 30.20 in 10.0 mi North 8.1 mph - N/A   Clear
1:56 AM 42.1 °F 37.1 °F 34.0 °F 73% 30.22 in 10.0 mi NNW 8.1 mph - N/A   Clear
2:56 AM 43.0 °F 37.7 °F 36.0 °F 76% 30.22 in 10.0 mi North 9.2 mph - N/A   Clear
3:56 AM 42.1 °F 37.1 °F 35.1 °F 76% 30.24 in 10.0 mi North 8.1 mph - N/A   Clear
4:56 AM 43.0 °F 38.2 °F 35.1 °F 74% 30.25 in 10.0 mi North 8.1 mph - N/A   Clear
5:56 AM 43.0 °F 38.2 °F 35.1 °F 74% 30.26 in 10.0 mi North 8.1 mph - N/A   Clear
6:56 AM 39.0 °F 35.7 °F 32.0 °F 76% 30.27 in 10.0 mi NNW 4.6 mph - N/A   Clear
7:56 AM 45.0 °F 41.2 °F 36.0 °F 71% 30.29 in 10.0 mi North 6.9 mph - N/A   Clear
8:56 AM 48.9 °F - 36.0 °F 61% 30.30 in 10.0 mi North 6.9 mph - N/A   Clear
9:56 AM 48.9 °F - 39.0 °F 69% 30.31 in 10.0 mi North 9.2 mph - N/A   Clear
10:56 AM 52.0 °F - 43.0 °F 71% 30.31 in 10.0 mi NW 12.7 mph - N/A   Clear
11:56 AM 53.1 °F - 44.1 °F 71% 30.32 in 10.0 mi NW 17.3 mph 24.2 mph N/A   Partly Cloudy
12:56 PM 54.0 °F - 44.1 °F 69% 30.31 in 9.0 mi NW 20.7 mph 27.6 mph N/A   Clear
1:56 PM 54.0 °F - 44.1 °F 69% 30.30 in 9.0 mi NW 19.6 mph 32.2 mph N/A   Clear
2:56 PM 53.1 °F - 44.1 °F 71% 30.29 in 8.0 mi NW 21.9 mph 32.2 mph N/A   Clear
3:56 PM 53.1 °F - 43.0 °F 69% 30.29 in 8.0 mi NW 23.0 mph 33.4 mph N/A   Clear
4:56 PM 52.0 °F - 42.1 °F 69% 30.28 in 9.0 mi NW 25.3 mph 38.0 mph N/A   Clear
5:56 PM 51.1 °F - 42.1 °F 71% 30.29 in 8.0 mi NW 26.5 mph 36.8 mph N/A   Clear
6:56 PM 50.0 °F - 41.0 °F 71% 30.30 in 8.0 mi NW 21.9 mph 33.4 mph N/A   Clear
7:56 PM 48.0 °F - 41.0 °F 77% 30.32 in 8.0 mi NW 23.0 mph 32.2 mph N/A   Partly Cloudy
8:56 PM 46.9 °F - 42.1 °F 83% 30.34 in 8.0 mi NNW 17.3 mph 26.5 mph N/A   Clear
9:56 PM 46.9 °F - 42.1 °F 83% 30.36 in 8.0 mi NNW 11.5 mph 19.6 mph N/A   Clear
10:56 PM 46.9 °F - 42.1 °F 83% 30.38 in 8.0 mi North 12.7 mph - N/A   Clear
11:56 PM 46.0 °F 41.9 °F 41.0 °F 83% 30.39 in 9.0 mi North 8.1 mph - N/A   Clear